Location: Pensacola
(30.4142°N, 87.2155°W)
Time: 14:26:18
(UTC-06:00)

Hubble Space Telescope - Visible Passes

Search period start: 02 February 2023 00:00
Search period end: 12 February 2023 00:00
Orbit: 529 x 532 km, 28.5° (Epoch: 01 February)

Date Brightness Start Highest point End Pass type
(mag) Time Alt. Az. Time Alt. Az. Time Alt. Az.
02 Feb 2.2 05:26:04 20° SW 05:27:31 24° SSW 05:30:52 10° SE visible
03 Feb 2.4 05:13:47 20° SW 05:14:20 21° SSW 05:17:25 10° SSE visible
04 Feb 2.7 05:01:32 17° SSW 05:01:32 17° SSW 05:03:50 10° SSE visible
05 Feb 3.2 04:49:19 12° S 04:49:19 12° S 04:50:03 10° S visible
08 Feb 3.4 19:29:15 10° S 19:29:25 11° S 19:29:25 11° S visible
09 Feb 2.9 19:15:31 10° SSW 19:17:14 16° S 19:17:14 16° S visible
10 Feb 2.4 19:01:56 10° SSW 19:05:01 22° SSE 19:05:01 22° SSE visible
11 Feb 2.1 18:48:27 10° SW 18:51:51 26° SSE 18:52:46 23° SE visible
